Location: Camerons Lookout
(40.9833°S, 175.9333°E)
Time: 09:15:38
(UTC+00:00)

Okean O Rocket - Pass Details

Date: 14 January 2026
Orbit: 614 x 634 km, 98.0° (Epoch: 19 February)

Event Time Altitude Azimuth Distance (km) Brightness Sun altitude
Rises 09:24:43 0° 160° (SSE) 2,966 5.4 -15.0°
Reaches altitude 10° 09:27:04 10° 152° (SSE) 2,046 4.5 -15.3°
Maximum altitude 09:31:16 40° 82° (E) 946 2.1 -15.8°
Enters shadow 09:32:54 29° 36° (NE) 1,176 2.4 -16.0°
